Year,Month,Day,Hour,Minute,Value (Times are PST for windspeed in km/hr)
2015,08,30,00,00,0.00
2015,08,30,00,01,0.00
2015,08,30,00,02,0.00
2015,08,30,00,03,0.00
2015,08,30,00,04,0.00
2015,08,30,00,05,0.00
2015,08,30,00,06,0.00
2015,08,30,00,07,0.00
2015,08,30,00,08,0.60
2015,08,30,00,09,1.80
2015,08,30,00,10,2.40
2015,08,30,00,11,3.10
2015,08,30,00,12,2.90
2015,08,30,00,13,2.40
2015,08,30,00,14,1.40
2015,08,30,00,15,0.70
2015,08,30,00,16,0.00
2015,08,30,00,17,0.00
2015,08,30,00,18,0.00
2015,08,30,00,19,0.00
2015,08,30,00,20,0.10
2015,08,30,00,21,1.60
2015,08,30,00,22,1.80
2015,08,30,00,23,1.80
2015,08,30,00,24,3.00
2015,08,30,00,25,2.40
2015,08,30,00,26,2.10
2015,08,30,00,27,2.80
2015,08,30,00,28,2.60
2015,08,30,00,29,2.80
2015,08,30,00,30,2.20
2015,08,30,00,31,2.60
2015,08,30,00,32,3.10
2015,08,30,00,33,2.50
2015,08,30,00,34,2.10
2015,08,30,00,35,2.60
2015,08,30,00,36,2.30
2015,08,30,00,37,2.10
2015,08,30,00,38,2.20
2015,08,30,00,39,2.30
2015,08,30,00,40,1.70
2015,08,30,00,41,2.30
2015,08,30,00,42,1.90
2015,08,30,00,43,3.10
2015,08,30,00,44,6.20
2015,08,30,00,45,5.70
2015,08,30,00,46,5.00
2015,08,30,00,47,2.30
2015,08,30,00,48,2.40
2015,08,30,00,49,1.50
2015,08,30,00,50,1.80
2015,08,30,00,51,2.70
2015,08,30,00,52,3.00
2015,08,30,00,53,2.20
2015,08,30,00,54,2.70
2015,08,30,00,55,4.10
2015,08,30,00,56,3.10
2015,08,30,00,57,1.80
2015,08,30,00,58,4.20
2015,08,30,00,59,3.90
2015,08,30,01,00,3.40
2015,08,30,01,01,3.10
2015,08,30,01,02,1.90
2015,08,30,01,03,1.00
2015,08,30,01,04,1.60
2015,08,30,01,05,2.50
2015,08,30,01,06,0.70
2015,08,30,01,07,0.20
2015,08,30,01,08,1.60
2015,08,30,01,09,2.90
2015,08,30,01,10,2.70
2015,08,30,01,11,3.80
2015,08,30,01,12,1.40
2015,08,30,01,13,2.70
2015,08,30,01,14,2.30
2015,08,30,01,15,2.60
2015,08,30,01,16,0.20
2015,08,30,01,17,1.60
2015,08,30,01,18,1.80
2015,08,30,01,19,2.20
2015,08,30,01,20,0.40
2015,08,30,01,21,0.10
2015,08,30,01,22,1.80
2015,08,30,01,23,0.60
2015,08,30,01,24,0.90
2015,08,30,01,25,0.80
2015,08,30,01,26,1.80
2015,08,30,01,27,1.60
2015,08,30,01,28,1.70
2015,08,30,01,29,1.20
2015,08,30,01,30,1.40
2015,08,30,01,31,0.90
2015,08,30,01,32,2.80
2015,08,30,01,33,1.40
2015,08,30,01,34,1.40
2015,08,30,01,35,1.90
2015,08,30,01,36,1.60
2015,08,30,01,37,1.60
2015,08,30,01,38,1.30
2015,08,30,01,39,1.30
2015,08,30,01,40,1.10
2015,08,30,01,41,1.60
2015,08,30,01,42,2.50
2015,08,30,01,43,0.60
2015,08,30,01,44,2.90
2015,08,30,01,45,2.50
2015,08,30,01,46,0.90
2015,08,30,01,47,1.20
2015,08,30,01,48,2.10
2015,08,30,01,49,1.30
2015,08,30,01,50,0.00
2015,08,30,01,51,0.00
2015,08,30,01,52,0.00
2015,08,30,01,53,0.00
2015,08,30,01,54,0.00
2015,08,30,01,55,0.00
2015,08,30,01,56,0.00
2015,08,30,01,57,0.10
2015,08,30,01,58,0.80
2015,08,30,01,59,1.60
2015,08,30,02,00,2.20
2015,08,30,02,01,3.50
2015,08,30,02,02,1.80
2015,08,30,02,03,1.60
2015,08,30,02,04,2.30
2015,08,30,02,05,1.60
2015,08,30,02,06,2.50
2015,08,30,02,07,3.90
2015,08,30,02,08,3.60
2015,08,30,02,09,3.40
2015,08,30,02,10,1.80
2015,08,30,02,11,2.10
2015,08,30,02,12,3.50
2015,08,30,02,13,2.10
2015,08,30,02,14,1.60
2015,08,30,02,15,2.40
2015,08,30,02,16,3.10
2015,08,30,02,17,1.10
2015,08,30,02,18,3.10
2015,08,30,02,19,2.80
2015,08,30,02,20,2.00
2015,08,30,02,21,1.50
2015,08,30,02,22,0.80
2015,08,30,02,23,0.40
2015,08,30,02,24,2.60
2015,08,30,02,25,1.50
2015,08,30,02,26,2.20
2015,08,30,02,27,2.20
2015,08,30,02,28,1.40
2015,08,30,02,29,2.20
2015,08,30,02,30,2.80
2015,08,30,02,31,3.70
2015,08,30,02,32,3.90
2015,08,30,02,33,1.50
2015,08,30,02,34,2.20
2015,08,30,02,35,2.00
2015,08,30,02,36,1.50
2015,08,30,02,37,2.10
2015,08,30,02,38,0.40
2015,08,30,02,39,0.20
2015,08,30,02,40,2.00
2015,08,30,02,41,1.00
2015,08,30,02,42,1.50
2015,08,30,02,43,1.90
2015,08,30,02,44,2.00
2015,08,30,02,45,1.40
2015,08,30,02,46,2.20
2015,08,30,02,47,1.80
2015,08,30,02,48,1.90
2015,08,30,02,49,2.40
2015,08,30,02,50,1.00
2015,08,30,02,51,3.40
2015,08,30,02,52,1.60
2015,08,30,02,53,0.70
2015,08,30,02,54,2.50
2015,08,30,02,55,2.70
2015,08,30,02,56,1.80
2015,08,30,02,57,2.70
2015,08,30,02,58,1.20
2015,08,30,02,59,1.50
2015,08,30,03,00,1.80
2015,08,30,03,01,1.20
2015,08,30,03,02,1.30
2015,08,30,03,03,0.20
2015,08,30,03,04,1.40
2015,08,30,03,05,1.30
2015,08,30,03,06,1.20
2015,08,30,03,07,1.90
2015,08,30,03,08,2.50
2015,08,30,03,09,4.30
2015,08,30,03,10,2.60
2015,08,30,03,11,3.30
2015,08,30,03,12,4.20
2015,08,30,03,13,5.40
2015,08,30,03,14,3.40
2015,08,30,03,15,3.70
2015,08,30,03,16,2.60
2015,08,30,03,17,2.80
2015,08,30,03,18,1.40
2015,08,30,03,19,1.70
2015,08,30,03,20,1.20
2015,08,30,03,21,2.90
2015,08,30,03,22,2.70
2015,08,30,03,23,4.00
2015,08,30,03,24,3.80
2015,08,30,03,25,2.80
2015,08,30,03,26,4.40
2015,08,30,03,27,2.40
2015,08,30,03,28,4.10
2015,08,30,03,29,2.60
2015,08,30,03,30,4.80
2015,08,30,03,31,2.40
2015,08,30,03,32,2.80
2015,08,30,03,33,3.30
2015,08,30,03,34,3.80
2015,08,30,03,35,3.20
2015,08,30,03,36,2.00
2015,08,30,03,37,2.90
2015,08,30,03,38,4.00
2015,08,30,03,39,3.50
2015,08,30,03,40,3.70
2015,08,30,03,41,2.50
2015,08,30,03,42,1.10
2015,08,30,03,43,2.30
2015,08,30,03,44,2.00
2015,08,30,03,45,2.20
2015,08,30,03,46,2.20
2015,08,30,03,47,0.90
2015,08,30,03,48,1.90
2015,08,30,03,49,2.60
2015,08,30,03,50,1.70
2015,08,30,03,51,1.50
2015,08,30,03,52,1.70
2015,08,30,03,53,0.60
2015,08,30,03,54,0.80
2015,08,30,03,55,0.00
2015,08,30,03,56,0.00
2015,08,30,03,57,0.00
2015,08,30,03,58,0.20
2015,08,30,03,59,1.50
2015,08,30,04,00,0.40
2015,08,30,04,01,0.20
2015,08,30,04,02,0.20
2015,08,30,04,03,0.10
2015,08,30,04,04,0.50
2015,08,30,04,05,0.20
2015,08,30,04,06,0.10
2015,08,30,04,07,0.60
2015,08,30,04,08,0.20
2015,08,30,04,09,0.00
2015,08,30,04,10,0.00
2015,08,30,04,11,0.00
2015,08,30,04,12,0.00
2015,08,30,04,13,0.00
2015,08,30,04,14,0.00
2015,08,30,04,15,0.00
2015,08,30,04,16,0.00
2015,08,30,04,17,0.00
2015,08,30,04,18,0.00
2015,08,30,04,19,0.00
2015,08,30,04,20,0.80
2015,08,30,04,21,1.30
2015,08,30,04,22,1.50
2015,08,30,04,23,0.40
2015,08,30,04,24,0.20
2015,08,30,04,25,0.30
2015,08,30,04,26,0.00
2015,08,30,04,27,0.20
2015,08,30,04,28,0.10
2015,08,30,04,29,0.00
2015,08,30,04,30,0.20
2015,08,30,04,31,0.10
2015,08,30,04,32,0.00
2015,08,30,04,33,0.00
2015,08,30,04,34,0.00
2015,08,30,04,35,0.00
2015,08,30,04,36,0.00
2015,08,30,04,37,0.00
2015,08,30,04,38,0.00
2015,08,30,04,39,0.00
2015,08,30,04,40,0.00
2015,08,30,04,41,0.00
2015,08,30,04,42,0.00
2015,08,30,04,43,0.00
2015,08,30,04,44,3.30
2015,08,30,04,45,1.80
2015,08,30,04,46,1.50
2015,08,30,04,47,2.50
2015,08,30,04,48,1.10
2015,08,30,04,49,0.10
2015,08,30,04,50,0.00
2015,08,30,04,51,1.10
2015,08,30,04,52,1.30
2015,08,30,04,53,2.60
2015,08,30,04,54,0.50
2015,08,30,04,55,1.10
2015,08,30,04,56,0.80
2015,08,30,04,57,3.60
2015,08,30,04,58,0.30
2015,08,30,04,59,0.70
2015,08,30,05,00,0.80
2015,08,30,05,01,0.50
2015,08,30,05,02,0.80
2015,08,30,05,03,1.00
2015,08,30,05,04,0.00
2015,08,30,05,05,0.00
2015,08,30,05,06,0.00
2015,08,30,05,07,0.00
2015,08,30,05,08,0.00
2015,08,30,05,09,0.00
2015,08,30,05,10,0.00
2015,08,30,05,11,0.00
2015,08,30,05,12,0.00
2015,08,30,05,13,0.00
2015,08,30,05,14,0.30
2015,08,30,05,15,0.10
2015,08,30,05,16,0.30
2015,08,30,05,17,0.00
2015,08,30,05,18,0.00
2015,08,30,05,19,0.10
2015,08,30,05,20,0.30
2015,08,30,05,21,0.10
2015,08,30,05,22,0.00
2015,08,30,05,23,0.00
2015,08,30,05,24,0.00
2015,08,30,05,25,0.00
2015,08,30,05,26,0.00
2015,08,30,05,27,0.00
2015,08,30,05,28,0.00
2015,08,30,05,29,0.00
2015,08,30,05,30,0.00
2015,08,30,05,31,0.00
2015,08,30,05,32,0.00
2015,08,30,05,33,0.00
2015,08,30,05,34,0.00
2015,08,30,05,35,0.00
2015,08,30,05,36,0.00
2015,08,30,05,37,0.00
2015,08,30,05,38,0.00
2015,08,30,05,39,0.00
2015,08,30,05,40,0.00
2015,08,30,05,41,0.00
2015,08,30,05,42,0.00
2015,08,30,05,43,0.00
2015,08,30,05,44,0.00
2015,08,30,05,45,0.00
2015,08,30,05,46,0.00
2015,08,30,05,47,0.00
2015,08,30,05,48,0.00
2015,08,30,05,49,0.00
2015,08,30,05,50,0.00
2015,08,30,05,51,0.00
2015,08,30,05,52,0.20
2015,08,30,05,53,0.10
2015,08,30,05,54,0.00
2015,08,30,05,55,0.20
2015,08,30,05,56,0.00
2015,08,30,05,57,0.00
2015,08,30,05,58,0.00
2015,08,30,05,59,0.00
2015,08,30,06,00,0.00
2015,08,30,06,01,0.00
2015,08,30,06,02,0.20
2015,08,30,06,03,0.20
2015,08,30,06,04,0.40
2015,08,30,06,05,0.00
2015,08,30,06,06,0.00
2015,08,30,06,07,0.00
2015,08,30,06,08,0.00
2015,08,30,06,09,0.00
2015,08,30,06,10,0.00
2015,08,30,06,11,0.00
2015,08,30,06,12,0.00
2015,08,30,06,13,0.00
2015,08,30,06,14,0.00
2015,08,30,06,15,0.00
2015,08,30,06,16,0.00
2015,08,30,06,17,0.10
2015,08,30,06,18,0.00
2015,08,30,06,19,0.00
2015,08,30,06,20,0.00
2015,08,30,06,21,0.00
2015,08,30,06,22,0.00
2015,08,30,06,23,0.00
2015,08,30,06,24,0.00
2015,08,30,06,25,0.00
2015,08,30,06,26,0.00
2015,08,30,06,27,0.10
2015,08,30,06,28,0.00
2015,08,30,06,29,0.10
2015,08,30,06,30,0.00
2015,08,30,06,31,0.00
2015,08,30,06,32,0.00
2015,08,30,06,33,0.00
2015,08,30,06,34,0.00
2015,08,30,06,35,0.00
2015,08,30,06,36,0.00
2015,08,30,06,37,0.00
2015,08,30,06,38,0.00
2015,08,30,06,39,0.00
2015,08,30,06,40,0.00
2015,08,30,06,41,0.00
2015,08,30,06,42,0.00
2015,08,30,06,43,0.00
2015,08,30,06,44,0.00
2015,08,30,06,45,0.00
2015,08,30,06,46,0.00
2015,08,30,06,47,0.00
2015,08,30,06,48,0.00
2015,08,30,06,49,0.00
2015,08,30,06,50,0.00
2015,08,30,06,51,0.00
2015,08,30,06,52,0.00
2015,08,30,06,53,0.00
2015,08,30,06,54,0.10
2015,08,30,06,55,0.40
2015,08,30,06,56,0.00
2015,08,30,06,57,0.10
2015,08,30,06,58,0.00
2015,08,30,06,59,0.00
2015,08,30,07,00,0.00
2015,08,30,07,01,0.00
2015,08,30,07,02,0.30
2015,08,30,07,03,0.00
2015,08,30,07,04,0.00
2015,08,30,07,05,0.10
2015,08,30,07,06,0.10
2015,08,30,07,07,0.00
2015,08,30,07,08,0.00
2015,08,30,07,09,0.00
2015,08,30,07,10,0.00
2015,08,30,07,11,0.00
2015,08,30,07,12,0.00
2015,08,30,07,13,0.00
2015,08,30,07,14,0.00
2015,08,30,07,15,0.00
2015,08,30,07,16,0.00
2015,08,30,07,17,0.00
2015,08,30,07,18,0.00
2015,08,30,07,19,0.00
2015,08,30,07,20,0.00
2015,08,30,07,21,0.00
2015,08,30,07,22,0.00
2015,08,30,07,23,0.00
2015,08,30,07,24,0.00
2015,08,30,07,25,0.00
2015,08,30,07,26,0.00
2015,08,30,07,27,0.00
2015,08,30,07,28,0.00
2015,08,30,07,29,0.00
2015,08,30,07,30,0.00
2015,08,30,07,31,0.00
2015,08,30,07,32,0.00
2015,08,30,07,33,0.00
2015,08,30,07,34,0.00
2015,08,30,07,35,0.00
2015,08,30,07,36,0.00
2015,08,30,07,37,0.00
2015,08,30,07,38,0.00
2015,08,30,07,39,0.00
2015,08,30,07,40,0.00
2015,08,30,07,41,0.00
2015,08,30,07,42,0.00
2015,08,30,07,43,0.00
2015,08,30,07,44,0.00
2015,08,30,07,45,0.00
2015,08,30,07,46,0.00
2015,08,30,07,47,0.00
2015,08,30,07,48,0.00
2015,08,30,07,49,0.00
2015,08,30,07,50,0.00
2015,08,30,07,51,0.00
2015,08,30,07,52,0.00
2015,08,30,07,53,0.00
2015,08,30,07,54,0.00
2015,08,30,07,55,0.00
2015,08,30,07,56,0.00
2015,08,30,07,57,0.00
2015,08,30,07,58,0.00
2015,08,30,07,59,0.00
2015,08,30,08,00,0.00
2015,08,30,08,01,0.00
2015,08,30,08,02,0.00
2015,08,30,08,03,0.00
2015,08,30,08,04,0.00
2015,08,30,08,05,0.00
2015,08,30,08,06,0.00
2015,08,30,08,07,0.00
2015,08,30,08,08,0.00
2015,08,30,08,09,0.00
2015,08,30,08,10,0.00
2015,08,30,08,11,0.00
2015,08,30,08,12,0.00
2015,08,30,08,13,0.00
2015,08,30,08,14,0.00
2015,08,30,08,15,0.00
2015,08,30,08,16,0.00
2015,08,30,08,17,0.00
2015,08,30,08,18,0.00
2015,08,30,08,19,0.00
2015,08,30,08,20,0.00
2015,08,30,08,21,0.00
2015,08,30,08,22,0.00
2015,08,30,08,23,0.00
2015,08,30,08,24,0.00
2015,08,30,08,25,0.00
2015,08,30,08,26,0.00
2015,08,30,08,27,0.00
2015,08,30,08,28,0.00
2015,08,30,08,29,0.00
2015,08,30,08,30,0.20
2015,08,30,08,31,0.20
2015,08,30,08,32,2.00
2015,08,30,08,33,0.20
2015,08,30,08,34,2.20
2015,08,30,08,35,4.10
2015,08,30,08,36,3.20
2015,08,30,08,37,0.10
2015,08,30,08,38,0.10
2015,08,30,08,39,0.00
2015,08,30,08,40,2.80
2015,08,30,08,41,1.60
2015,08,30,08,42,0.30
2015,08,30,08,43,2.90
2015,08,30,08,44,6.40
2015,08,30,08,45,4.90
2015,08,30,08,46,4.50
2015,08,30,08,47,4.10
2015,08,30,08,48,3.80
2015,08,30,08,49,3.00
2015,08,30,08,50,1.50
2015,08,30,08,51,2.20
2015,08,30,08,52,2.00
2015,08,30,08,53,5.10
2015,08,30,08,54,4.30
2015,08,30,08,55,2.60
2015,08,30,08,56,4.90
2015,08,30,08,57,4.20
2015,08,30,08,58,4.70
2015,08,30,08,59,1.30
2015,08,30,09,00,0.10
2015,08,30,09,01,0.30
2015,08,30,09,02,1.00
2015,08,30,09,03,2.60
2015,08,30,09,04,2.20
2015,08,30,09,05,1.80
2015,08,30,09,06,2.70
2015,08,30,09,07,1.40
2015,08,30,09,08,1.30
2015,08,30,09,09,0.30
2015,08,30,09,10,0.00
2015,08,30,09,11,0.40
2015,08,30,09,12,1.50
2015,08,30,09,13,2.90
2015,08,30,09,14,1.90
2015,08,30,09,15,1.20
2015,08,30,09,16,0.50
2015,08,30,09,17,4.00
2015,08,30,09,18,3.40
2015,08,30,09,19,1.80
2015,08,30,09,20,1.40
2015,08,30,09,21,2.50
2015,08,30,09,22,2.90
2015,08,30,09,23,1.40
2015,08,30,09,24,2.50
2015,08,30,09,25,1.80
2015,08,30,09,26,2.50
2015,08,30,09,27,3.20
2015,08,30,09,28,2.80
2015,08,30,09,29,0.60
2015,08,30,09,30,1.40
2015,08,30,09,31,1.50
2015,08,30,09,32,4.10
2015,08,30,09,33,0.50
2015,08,30,09,34,2.30
2015,08,30,09,35,1.90
2015,08,30,09,36,2.80
2015,08,30,09,37,1.70
2015,08,30,09,38,1.80
2015,08,30,09,39,1.90
2015,08,30,09,40,3.60
2015,08,30,09,41,2.60
2015,08,30,09,42,3.00
2015,08,30,09,43,2.10
2015,08,30,09,44,2.40
2015,08,30,09,45,4.10
2015,08,30,09,46,2.90
2015,08,30,09,47,3.90
2015,08,30,09,48,3.30
2015,08,30,09,49,3.00
2015,08,30,09,50,4.30
2015,08,30,09,51,3.00
2015,08,30,09,52,0.10
2015,08,30,09,53,1.20
2015,08,30,09,54,0.00
2015,08,30,09,55,2.20
2015,08,30,09,56,4.00
2015,08,30,09,57,3.40
2015,08,30,09,58,4.20
2015,08,30,09,59,3.10
2015,08,30,10,00,3.80
2015,08,30,10,01,4.80
2015,08,30,10,02,2.40
2015,08,30,10,03,4.20
2015,08,30,10,04,5.30
2015,08,30,10,05,2.70
2015,08,30,10,06,1.80
2015,08,30,10,07,1.90
2015,08,30,10,08,1.60
2015,08,30,10,09,4.80
2015,08,30,10,10,2.90
2015,08,30,10,11,2.10
2015,08,30,10,12,4.30
2015,08,30,10,13,2.90
2015,08,30,10,14,2.60
2015,08,30,10,15,1.50
2015,08,30,10,16,4.10
2015,08,30,10,17,5.80
2015,08,30,10,18,4.50
2015,08,30,10,19,2.70
2015,08,30,10,20,3.90
2015,08,30,10,21,2.90
2015,08,30,10,22,2.80
2015,08,30,10,23,2.30
2015,08,30,10,24,1.60
2015,08,30,10,25,2.80
2015,08,30,10,26,1.20
2015,08,30,10,27,3.30
2015,08,30,10,28,3.50
2015,08,30,10,29,3.40
2015,08,30,10,30,3.80
2015,08,30,10,31,0.40
2015,08,30,10,32,4.90
2015,08,30,10,33,5.70
2015,08,30,10,34,5.60
2015,08,30,10,35,4.30
2015,08,30,10,36,4.60
2015,08,30,10,37,6.40
2015,08,30,10,38,5.80
2015,08,30,10,39,3.50
2015,08,30,10,40,4.90
2015,08,30,10,41,5.40
2015,08,30,10,42,4.20
2015,08,30,10,43,5.70
2015,08,30,10,44,3.20
2015,08,30,10,45,4.10
2015,08,30,10,46,4.20
2015,08,30,10,47,1.10
2015,08,30,10,48,5.70
2015,08,30,10,49,7.00
2015,08,30,10,50,5.30
2015,08,30,10,51,3.40
2015,08,30,10,52,6.60
2015,08,30,10,53,3.40
2015,08,30,10,54,3.80
2015,08,30,10,55,6.30
2015,08,30,10,56,4.70
2015,08,30,10,57,3.90
2015,08,30,10,58,3.40
2015,08,30,10,59,4.20
2015,08,30,11,00,4.60
2015,08,30,11,01,7.00
2015,08,30,11,02,6.40
2015,08,30,11,03,1.70
2015,08,30,11,04,3.80
2015,08,30,11,05,8.20
2015,08,30,11,06,6.90
2015,08,30,11,07,5.40
2015,08,30,11,08,7.70
2015,08,30,11,09,6.40
2015,08,30,11,10,6.00
2015,08,30,11,11,6.20
2015,08,30,11,12,8.50
2015,08,30,11,13,7.70
2015,08,30,11,14,7.40
2015,08,30,11,15,6.40
2015,08,30,11,16,7.50
2015,08,30,11,17,7.10
2015,08,30,11,18,3.70
2015,08,30,11,19,6.70
2015,08,30,11,20,6.50
2015,08,30,11,21,3.80
2015,08,30,11,22,3.30
2015,08,30,11,23,7.30
2015,08,30,11,24,8.00
2015,08,30,11,25,4.60
2015,08,30,11,26,8.20
2015,08,30,11,27,8.00
2015,08,30,11,28,8.10
2015,08,30,11,29,7.10
2015,08,30,11,30,5.00
2015,08,30,11,31,3.00
2015,08,30,11,32,7.80
2015,08,30,11,33,11.10
2015,08,30,11,34,9.70
2015,08,30,11,35,9.30
2015,08,30,11,36,8.50
2015,08,30,11,37,5.90
2015,08,30,11,38,8.50
2015,08,30,11,39,8.10
2015,08,30,11,40,8.70
2015,08,30,11,41,12.30
2015,08,30,11,42,8.10
2015,08,30,11,43,7.40
2015,08,30,11,44,7.70
2015,08,30,11,45,10.50
2015,08,30,11,46,8.30
2015,08,30,11,47,10.20
2015,08,30,11,48,11.20
2015,08,30,11,49,12.40
2015,08,30,11,50,12.60
2015,08,30,11,51,5.70
2015,08,30,11,52,5.30
2015,08,30,11,53,12.20
2015,08,30,11,54,8.00
2015,08,30,11,55,11.40
2015,08,30,11,56,8.10
2015,08,30,11,57,10.30
2015,08,30,11,58,7.60
2015,08,30,11,59,9.30
2015,08,30,12,00,8.00
2015,08,30,12,01,3.60
2015,08,30,12,02,7.00
2015,08,30,12,03,9.00
2015,08,30,12,04,7.40
2015,08,30,12,05,8.40
2015,08,30,12,06,7.40
2015,08,30,12,07,7.50
2015,08,30,12,08,7.60
2015,08,30,12,09,8.60
2015,08,30,12,10,10.50
2015,08,30,12,11,12.70
2015,08,30,12,12,7.60
2015,08,30,12,13,9.70
2015,08,30,12,14,13.00
2015,08,30,12,15,12.10
2015,08,30,12,16,12.40
2015,08,30,12,17,10.70
2015,08,30,12,18,12.20
2015,08,30,12,19,8.80
2015,08,30,12,20,12.60
2015,08,30,12,21,10.90
2015,08,30,12,22,9.50
2015,08,30,12,23,5.90
2015,08,30,12,24,7.70
2015,08,30,12,25,9.30
2015,08,30,12,26,10.20
2015,08,30,12,27,12.00
2015,08,30,12,28,11.50
2015,08,30,12,29,10.80
2015,08,30,12,30,11.20
2015,08,30,12,31,13.70
2015,08,30,12,32,12.30
2015,08,30,12,33,10.70
2015,08,30,12,34,13.20
2015,08,30,12,35,8.90
2015,08,30,12,36,10.90
2015,08,30,12,37,13.10
2015,08,30,12,38,9.20
2015,08,30,12,39,12.30
2015,08,30,12,40,12.00
2015,08,30,12,41,12.30
2015,08,30,12,42,7.80
2015,08,30,12,43,9.70
2015,08,30,12,44,8.40
2015,08,30,12,45,7.30
2015,08,30,12,46,10.70
2015,08,30,12,47,12.30
2015,08,30,12,48,10.00
2015,08,30,12,49,11.70
2015,08,30,12,50,10.70
2015,08,30,12,51,11.40
2015,08,30,12,52,8.80
2015,08,30,12,53,8.20
2015,08,30,12,54,8.60
2015,08,30,12,55,6.90
2015,08,30,12,56,8.40
2015,08,30,12,57,7.60
2015,08,30,12,58,6.40
2015,08,30,12,59,9.80
2015,08,30,13,00,10.90
2015,08,30,13,01,7.90
2015,08,30,13,02,2.80
2015,08,30,13,03,3.30
2015,08,30,13,04,8.10
2015,08,30,13,05,13.90
2015,08,30,13,06,13.30
2015,08,30,13,07,10.20
2015,08,30,13,08,10.50
2015,08,30,13,09,9.20
2015,08,30,13,10,8.90
2015,08,30,13,11,10.80
2015,08,30,13,12,7.50
2015,08,30,13,13,11.10
2015,08,30,13,14,6.90
2015,08,30,13,15,11.30
2015,08,30,13,16,8.30
2015,08,30,13,17,8.60
2015,08,30,13,18,9.30
2015,08,30,13,19,9.40
2015,08,30,13,20,7.10
2015,08,30,13,21,9.70
2015,08,30,13,22,7.50
2015,08,30,13,23,9.60
2015,08,30,13,24,8.10
2015,08,30,13,25,11.00
2015,08,30,13,26,10.20
2015,08,30,13,27,8.90
2015,08,30,13,28,4.10
2015,08,30,13,29,8.20
2015,08,30,13,30,7.80
2015,08,30,13,31,5.10
2015,08,30,13,32,7.70
2015,08,30,13,33,10.30
2015,08,30,13,34,10.40
2015,08,30,13,35,10.50
2015,08,30,13,36,7.70
2015,08,30,13,37,13.10
2015,08,30,13,38,13.00
2015,08,30,13,39,10.50
2015,08,30,13,40,11.50
2015,08,30,13,41,6.90
2015,08,30,13,42,7.00
2015,08,30,13,43,9.70
2015,08,30,13,44,7.60
2015,08,30,13,45,9.80
2015,08,30,13,46,7.90
2015,08,30,13,47,8.90
2015,08,30,13,48,4.70
2015,08,30,13,49,7.70
2015,08,30,13,50,7.80
2015,08,30,13,51,4.70
2015,08,30,13,52,8.40
2015,08,30,13,53,11.50
2015,08,30,13,54,9.80
2015,08,30,13,55,10.50
2015,08,30,13,56,8.40
2015,08,30,13,57,8.20
2015,08,30,13,58,10.90
2015,08,30,13,59,8.10
2015,08,30,14,00,8.30
2015,08,30,14,01,7.70
2015,08,30,14,02,11.50
2015,08,30,14,03,3.50
2015,08,30,14,04,5.10
2015,08,30,14,05,9.50
2015,08,30,14,06,6.00
2015,08,30,14,07,5.70
2015,08,30,14,08,7.10
2015,08,30,14,09,6.00
2015,08,30,14,10,9.80
2015,08,30,14,11,11.80
2015,08,30,14,12,12.20
2015,08,30,14,13,11.90
2015,08,30,14,14,7.90
2015,08,30,14,15,8.80
2015,08,30,14,16,10.00
2015,08,30,14,17,10.50
2015,08,30,14,18,8.90
2015,08,30,14,19,11.00
2015,08,30,14,20,13.30
2015,08,30,14,21,12.80
2015,08,30,14,22,10.10
2015,08,30,14,23,8.30
2015,08,30,14,24,11.70
2015,08,30,14,25,10.80
2015,08,30,14,26,10.00
2015,08,30,14,27,6.60
2015,08,30,14,28,7.80
2015,08,30,14,29,13.80
2015,08,30,14,30,9.00
2015,08,30,14,31,9.20
2015,08,30,14,32,11.20
2015,08,30,14,33,8.80
2015,08,30,14,34,9.60
2015,08,30,14,35,8.10
2015,08,30,14,36,6.80
2015,08,30,14,37,11.70
2015,08,30,14,38,5.60
2015,08,30,14,39,6.00
2015,08,30,14,40,8.20
2015,08,30,14,41,8.70
2015,08,30,14,42,7.00
2015,08,30,14,43,13.60
2015,08,30,14,44,9.90
2015,08,30,14,45,12.40
2015,08,30,14,46,9.70
2015,08,30,14,47,10.60
2015,08,30,14,48,10.20
2015,08,30,14,49,5.60
2015,08,30,14,50,10.70
2015,08,30,14,51,10.70
2015,08,30,14,52,10.80
2015,08,30,14,53,9.10
2015,08,30,14,54,12.70
2015,08,30,14,55,10.50
2015,08,30,14,56,7.70
2015,08,30,14,57,7.30
2015,08,30,14,58,5.80
2015,08,30,14,59,9.40
2015,08,30,15,00,9.40
2015,08,30,15,01,8.50
2015,08,30,15,02,4.10
2015,08,30,15,03,9.40
2015,08,30,15,04,8.50
2015,08,30,15,05,5.60
2015,08,30,15,06,8.10
2015,08,30,15,07,11.90
2015,08,30,15,08,10.00
2015,08,30,15,09,6.00
2015,08,30,15,10,10.20
2015,08,30,15,11,9.20
2015,08,30,15,12,6.90
2015,08,30,15,13,8.30
2015,08,30,15,14,9.10
2015,08,30,15,15,13.70
2015,08,30,15,16,11.50
2015,08,30,15,17,9.40
2015,08,30,15,18,7.70
2015,08,30,15,19,7.50
2015,08,30,15,20,9.20
2015,08,30,15,21,8.00
2015,08,30,15,22,9.30
2015,08,30,15,23,7.30
2015,08,30,15,24,8.70
2015,08,30,15,25,6.40
2015,08,30,15,26,7.20
2015,08,30,15,27,8.40
2015,08,30,15,28,9.30
2015,08,30,15,29,6.10
2015,08,30,15,30,8.90
2015,08,30,15,31,5.10
2015,08,30,15,32,6.80
2015,08,30,15,33,6.80
2015,08,30,15,34,6.40
2015,08,30,15,35,6.80
2015,08,30,15,36,6.40
2015,08,30,15,37,9.20
2015,08,30,15,38,7.80
2015,08,30,15,39,7.40
2015,08,30,15,40,10.70
2015,08,30,15,41,11.60
2015,08,30,15,42,6.80
2015,08,30,15,43,10.80
2015,08,30,15,44,9.60
2015,08,30,15,45,8.20
2015,08,30,15,46,7.20
2015,08,30,15,47,8.20
2015,08,30,15,48,6.80
2015,08,30,15,49,7.60
2015,08,30,15,50,2.80
2015,08,30,15,51,6.40
2015,08,30,15,52,7.10
2015,08,30,15,53,13.00
2015,08,30,15,54,10.50
2015,08,30,15,55,9.80
2015,08,30,15,56,6.90
2015,08,30,15,57,6.80
2015,08,30,15,58,11.90
2015,08,30,15,59,10.10
2015,08,30,16,00,8.50
2015,08,30,16,01,4.80
2015,08,30,16,02,8.60
2015,08,30,16,03,6.10
2015,08,30,16,04,7.60
2015,08,30,16,05,5.60
2015,08,30,16,06,5.10
2015,08,30,16,07,3.50
2015,08,30,16,08,3.20
2015,08,30,16,09,5.60
2015,08,30,16,10,4.30
2015,08,30,16,11,6.40
2015,08,30,16,12,7.80
2015,08,30,16,13,5.70
2015,08,30,16,14,6.40
2015,08,30,16,15,7.00
2015,08,30,16,16,9.40
2015,08,30,16,17,5.90
2015,08,30,16,18,6.80
2015,08,30,16,19,6.20
2015,08,30,16,20,4.50
2015,08,30,16,21,8.40
2015,08,30,16,22,6.40
2015,08,30,16,23,6.80
2015,08,30,16,24,4.80
2015,08,30,16,25,4.50
2015,08,30,16,26,4.50
2015,08,30,16,27,3.70
2015,08,30,16,28,6.10
2015,08,30,16,29,4.50
2015,08,30,16,30,8.00
2015,08,30,16,31,6.70
2015,08,30,16,32,4.20
2015,08,30,16,33,5.30
2015,08,30,16,34,3.60
2015,08,30,16,35,6.30
2015,08,30,16,36,5.70
2015,08,30,16,37,3.20
2015,08,30,16,38,4.80
2015,08,30,16,39,2.40
2015,08,30,16,40,8.60
2015,08,30,16,41,2.90
2015,08,30,16,42,3.10
2015,08,30,16,43,4.60
2015,08,30,16,44,4.00
2015,08,30,16,45,5.00
2015,08,30,16,46,6.00
2015,08,30,16,47,4.80
2015,08,30,16,48,1.10
2015,08,30,16,49,2.70
2015,08,30,16,50,1.00
2015,08,30,16,51,2.80
2015,08,30,16,52,4.40
2015,08,30,16,53,5.10
2015,08,30,16,54,3.40
2015,08,30,16,55,3.20
2015,08,30,16,56,5.90
2015,08,30,16,57,2.10
2015,08,30,16,58,1.70
2015,08,30,16,59,2.20
2015,08,30,17,00,2.80
2015,08,30,17,01,5.30
2015,08,30,17,02,3.90
2015,08,30,17,03,4.00
2015,08,30,17,04,2.70
2015,08,30,17,05,3.10
2015,08,30,17,06,6.50
2015,08,30,17,07,4.30
2015,08,30,17,08,4.30
2015,08,30,17,09,3.90
2015,08,30,17,10,3.90
2015,08,30,17,11,5.80
2015,08,30,17,12,1.40
2015,08,30,17,13,1.50
2015,08,30,17,14,2.80
2015,08,30,17,15,5.60
2015,08,30,17,16,2.80
2015,08,30,17,17,4.70
2015,08,30,17,18,4.10
2015,08,30,17,19,2.40
2015,08,30,17,20,2.00
2015,08,30,17,21,2.00
2015,08,30,17,22,3.20
2015,08,30,17,23,6.10
2015,08,30,17,24,3.70
2015,08,30,17,25,2.90
2015,08,30,17,26,2.60
2015,08,30,17,27,5.00
2015,08,30,17,28,5.10
2015,08,30,17,29,3.10
2015,08,30,17,30,4.00
2015,08,30,17,31,3.20
2015,08,30,17,32,2.60
2015,08,30,17,33,3.20
2015,08,30,17,34,3.30
2015,08,30,17,35,3.60
2015,08,30,17,36,3.00
2015,08,30,17,37,2.70
2015,08,30,17,38,3.20
2015,08,30,17,39,5.10
2015,08,30,17,40,4.20
2015,08,30,17,41,2.70
2015,08,30,17,42,2.80
2015,08,30,17,43,3.30
2015,08,30,17,44,2.50
2015,08,30,17,45,3.60
2015,08,30,17,46,1.50
2015,08,30,17,47,3.50
2015,08,30,17,48,4.20
2015,08,30,17,49,0.90
2015,08,30,17,50,1.30
2015,08,30,17,51,1.40
2015,08,30,17,52,2.80
2015,08,30,17,53,3.40
2015,08,30,17,54,3.90
2015,08,30,17,55,2.20
2015,08,30,17,56,5.30
2015,08,30,17,57,4.50
2015,08,30,17,58,5.40
2015,08,30,17,59,6.10
2015,08,30,18,00,5.50
2015,08,30,18,01,5.30
2015,08,30,18,02,6.50